Location: Unspecified
(0.0000°N, 0.0000°E)
Time: 17:37:19
(UTC+00:00)

AD-A Canister/Altair 2 - Pass Details

Date: 08 May 2025
Orbit: 593 x 2295 km, 78.6° (Epoch: 12 May)

Event Time Altitude Azimuth Distance (km) Brightness Sun altitude
Rises 18:02:10 0° 178° (S) 5,885 11.3 -1.4°
Reaches altitude 10° 18:05:58 10° 174° (S) 4,868 10.9 -2.3°
Maximum altitude 18:18:41 59° 98° (E) 2,311 9.2 -5.3°
Drops below altitude 10° 18:28:47 10° 22° (NNE) 3,939 10.6 -7.7°
Sets 18:31:31 0° 18° (NNE) 4,726 11.1 -8.4°
